Regional Weather Roundup
Issued by NWS Wakefield, VA

Home | Current Version | Previous Version | Text Only | Print | Product List | Glossary Off
Versions: 1 2 3 4 5 6 7 8 9 10 11 12 13 14 15 16 17 18 19 20 21 22 23 24 25 26 27

000
ASUS41 KAKQ 212216
RWRAKQ

REGIONAL WEATHER ROUNDUP
NATIONAL WEATHER SERVICE WAKEFIELD VA
600 PM EDT SAT OCT 21 2017

Note: "fair" indicates few or no clouds below 12,000 feet with no
significant weather and/or obstructions to visibility. * = Denotes
station may not report precipitation (e.g., rain,snow,etc.),
thunder or fog.

VAZ042-051-052>054-056-212300-
NORTHERN VIRGINIA

CITY           SKY/WX    TMP DP  RH WIND       PRES   REMARKS
WASH NATIONAL  CLOUDY    71  52  50 SE3       30.33R
DULLES         CLOUDY    70  41  34 SE3       30.33R
FORT BELVOIR   CLOUDY    65  55  70 CALM      30.32S
QUANTICO       CLOUDY    70  53  54 CALM      30.33S
FREDERICKSBRG* CLOUDY    71  47  42 CALM      30.32R
STAFFORD*      CLOUDY    65  56  72 CALM      30.37R
WARRENTON      CLOUDY    70  39  32 E5        30.32R
CULPEPER*      CLOUDY    71  47  42 CALM      30.32S
MANASSAS*      CLOUDY    68  48  48 SE5       30.33R
LEESBURG*      CLOUDY    73  45  35 SE6       30.33S
WINCHESTER     PTCLDY    68  50  52 E3        30.32R
FRONT ROYAL*   PTCLDY    70  50  49 CALM      30.30S
LURAY*         MOCLDY    72  52  49 CALM      30.31R
$$

VAZ048-049-060>072-079>083-212300-
CENTRAL AND SOUTH CENTRAL VIRGINIA

CITY           SKY/WX    TMP DP  RH WIND       PRES   REMARKS
RICHMOND       CLOUDY    71  52  50 E5        30.32R
CHESTERFIELD*  NOT AVBL
PETERSBURG*    CLOUDY    67  59  74 CALM      30.32R
HANOVER        CLOUDY    67  58  72 CALM      30.33R
TAPPAHANNOCK*  CLOUDY    71  37  29 CALM      30.33S
QUINTON*       FAIR      69  56  62 S5        30.32R
CHARLOTTSVILLE PTCLDY    73  52  47 S5        30.32R
GORDONSVILLE*  CLOUDY    70  55  59 CALM      30.32R
ORANGE*        CLOUDY    70  54  56 CALM      30.32R
LOUISA*        CLOUDY    66  57  72 CALM      30.32R
BUMPASS*       FAIR      66  55  67 CALM      30.32S
FARMVILLE*     CLOUDY    74  55  51 CALM      30.30S
CREWE*         FAIR      69  58  68 CALM      30.31S
FORT PICKETT*  FAIR      71  57  62 NE3       30.32R
CHASE CITY*    FAIR      73  52  48 CALM      30.32R
CLARKSVILLE*   FAIR      70  55  60 CALM      30.31S
SOUTH HILL*    CLOUDY    71  58  63 CALM      30.37S
LAWRENCEVILLE* FAIR      71  57  62 CALM      30.31S
EMPORIA*       CLOUDY    70  57  64 CALM      30.33S
$$

VAZ088>098-212300-
SOUTHEAST VIRGINIA

CITY           SKY/WX    TMP DP  RH WIND       PRES   REMARKS
NORFOLK        CLEAR     70  51  51 E5        30.33R
VIRGINIA BEACH MOCLDY    67  54  63 CALM      30.33R
NORFOLK NAVAL  MOCLDY    67  53  61 E6        30.34R
WEST POINT*    CLOUDY    68  58  70 E6        30.34S
SALUDA*        FAIR      66  58  75 CALM      30.33S
NEWPORT NEWS   CLEAR     66  54  65 E5        30.33R
LANGLEY AFB    CLEAR     68  53  58 E7        30.33R
FORT EUSTIS    CLEAR     73  51  47 E5        30.30S
WILLIAMSBURG*  CLEAR     70  59  68 CALM      30.33S
HR EXEC AP*    NOT AVBL
FRANKLIN*      CLOUDY    72  55  55 E3        30.32R
US460-WAKEFLD  CLEAR     70  57  63 CALM      30.32R
$$

VAZ020-022-025-037-045-212300-
WEST CENTRAL AND SOUTHWEST VIRGINIA

CITY           SKY/WX    TMP DP  RH WIND       PRES   REMARKS
STAUNTON*      PTCLDY    70  51  51 S6        30.35R
WAYNESBORO*    PTCLDY    68  52  56 SE5       30.34R
HOT SPRINGS VA CLOUDY    61  46  57 CALM      30.41S
LYNCHBURG      CLOUDY    71  53  52 SE3       30.33R
DANVILLE       PTCLDY    72  57  59 CALM      30.31S
SOUTH BOSTON*  FAIR      73  52  46 CALM      30.32R
MARTINSVILLE   PTCLDY    67  56  66 CALM      30.35R
ROANOKE        MOCLDY    72  53  51 SE8       30.34R
BLACKSBURG     PTCLDY    69  53  58 E7        30.37R
DUBLIN*        PTCLDY    72  51  47 S3        30.35R
MARION*        PTCLDY    71  43  35 SE7       30.36S
HILLSVILLE*    PTCLDY    65  44  45 CALM      30.35S
RICHLANDS*     FAIR      71 -42   1 CALM      30.34R
WISE*          CLOUDY    70  43  37 CALM      30.34S
ABINGDON*      CLOUDY    75  40  28 NE3       30.30S
$$

MDZ021>025-VAZ099-100-212300-
SOUTHERN MARYLAND AND THE DELMARVA PENINSULA

CITY           SKY/WX    TMP DP  RH WIND       PRES   REMARKS
PATUXENT RIVER MOCLDY    67  48  50 SE3       30.33R
BAY BRIDGE APT CLEAR     66  52  59 CALM      30.33S
LEONARDTOWN    NOT AVBL
DOVER          CLEAR     64  59  85 E3        30.33R
GEORGETOWN     CLOUDY    68  50  52 S5        30.34R
EASTON         MOCLDY    70  50  49 CALM      30.37R
CAMBRIDGE      CLEAR     68  46  45 W3        30.33R
SALISBURY      CLEAR     66  54  65 SE6       30.34R
OCEAN CITY     CLOUDY    66  58  75 CALM      30.35R
WALLOPS ISLAND CLEAR     66  57  72 SE5       30.35R
ACCOMACK*      CLEAR     65  56  72 CALM      30.35R
$$

NCZ012>017-030>032-212300-
NORTH CENTRAL AND EASTERN NORTH CAROLINA

CITY           SKY/WX    TMP DP  RH WIND       PRES   REMARKS
ROANOKE RAPIDS FAIR      70  63  78 CALM      30.31S
RALEIGH        CLOUDY    73  54  51 SE3       30.32R
ELIZABETH CITY CLOUDY    69  56  62 E6        30.33R
AHOSKIE*       CLOUDY    70  58  66 CALM      30.32R
EDENTON*       CLOUDY    71  58  65 CALM      30.33R
CURRITUCK*     CLOUDY    69  57  64 E3        30.34R
KILL DEVIL HLS CLOUDY    68  55  64 CALM      30.32R
MANTEO         CLOUDY   N/A N/A N/A E3        30.34R
CAPE HATTERAS  CLEAR     69  60  73 NE3       30.32S
TARBORO*       NOT AVBL
GOLDSBORO      CLOUDY    72  55  54 E3        30.29R
WASHINGTON     CLEAR     73  56  55 CALM      30.32R
GREENVILLE     CLOUDY    75  55  50 E3        30.32R
NEW BERN       CLEAR     71  58  63 SE3       30.32R
WILMINGTON     CLOUDY    73  61  65 E7        30.31R
$$

VAZ048-212300-
ELSEWHERE

CITY           SKY/WX    TMP DP  RH WIND       PRES   REMARKS
HARRISBURG PA  CLOUDY    65  58  78 S3        30.31S
BALTIMORE      CLOUDY    67  51  56 SE3       30.33R
ANNAPOLIS      CLOUDY    68  54  60 CALM      30.33R
ANDREWS AFB    CLOUDY    67  45  44 E6        30.32R
PHILADELPHIA   CLOUDY    72  47  40 SW7       30.33R
HENDERSON NC   CLOUDY    70  54  57 E3        30.32R
GREENSBORO     CLOUDY    72  52  49 S5        30.31S
ROCKY MOUNT    PTCLDY    69  62  78 CALM      30.31R
$$

VAZ100-212300-
MARINE

STATION/POSITION TIME  TEMP    WIND        PRES    WAVE   SWELL
                       AIR SEA DIR/SP/G            HT/PER HT/PER
                 (UTC) (F)     (DEG/KT/KT) (MB)    (FT/S) (FT/S)
BRANDYWINE LGT   2136   67     150/  7/  9 1027.5R
CAPE MAY NJ      2136   67 66  130/  5/  5 1026.8R
LEWES DE         2136   68 66  150/  5/  7 1027.0R
15NM E FENWICK I 2150   68 69  140/  4/  6 1027.9R   2/ 9   2/ 9
OCEAN-CITY-INLET 2136   69 68  180/  3/  5 1027.9R
WACHAPREAGUE VA  2136   68 68  100/  4/  5 1027.4R
THOMAS POINT MD  2200   69 67  210/  1/  2   N/A
GOOSES REEF MD   2200   69 70  150/  2/  2 1023.9    0
COVE POINT MD    2136   70     160/  2/  2 1027.8R
SOLOMONS ISLAND  2136   69 70   90/  4/  4 1026.8R
BISHOPS HEAD MD  2136   69 68  260/  2/  3 1027.6R
PINEY POINT MD   2136          150/  6/  7   N/A
POTOMAC MD       2200   70 70  110/  2/  4 1026.7    0
CAMBRIDGE MD     2148                      1028.0R
LEWISETTA VA     2136   68 67  140/  4/  4 1027.1R
RAPPAHANNOCK LGT 2148           30/  4/  4 1028.0R
STINGRAY PT      2200   69 69  110/  4/  6 1027.7    0
YORK RVR RNG VA  2136   69     120/  6/  7 1027.7R
YORKTOWN VA      2136   70 70  100/  5/  7 1026.8R
JAMESTOWN VA     2200      70  110/  4/  6   N/A     0
DOMINION TERM VA 2148           50/  2/  4 1027.3R
KIPTOPEKE VA     2136      69  110/  3/  6   N/A
CAPE HENRY VA    2136   69     100/  6/  7   N/A
WILLOUBY STN VA  2148           90/  8/  9 1027.1R
S CRANEY ISL VA  2136   71      80/  5/  6 1026.7R
CAPE HENRY BUOY  2130      71                N/A     2/ 8
1ST LANDING BUOY 2200   69 69              1027.2    1
CAPE CHARLES BUO 2151      71                N/A     2/ 8
64NM E OF VA BCH 2150   68 70   40/  6/  6 1027.6R   2/ 9   2/ 9
DUCK PIER NC     2136   71 70  100/  5/  6 1026.7R
44100 DUCK FRF   2135      71                N/A     2/ 8
44056 DUCK FRF   2130      71                N/A     2/ 8
OREGON INLET NC  2148           50/  4/  6 1027.0R
HATTERAS NC      2136   71 72   60/  5/  8 1026.6R
DIAMOND SHLS NC  2150   73 81   10/  8/ 10 1026.3R   3/ 8   3/ 8
CAPE LOOKOUT NC  2200   72      50/ 10/ 11 1026.2R
$$




USA.gov is the U.S. government's official web portal to all federal, state and local government web resources and services.